Moorhead, MN

8:23 AM CDT on October 23, 2017 (GMT -0500)
Moorhead Municipal

Weather History for KJKJ - November, 2012

Change the Weather History Date:

Wednesday, November 7, 2012

  Actual Average (KFAR) Record (KFAR)
Temperature  
Mean Temperature 37 °F -  
Max Temperature 46 °F 41 °F 70 °F (1999)
Min Temperature 28 °F 23 °F -3 °F (1936)
Degree Days  
Heating Degree Days 28    
Moisture  
Dew Point 36 °F    
Average Humidity 87    
Maximum Humidity 100    
Minimum Humidity 66    
Precipitation  
Precipitation 0.00 in - - ()
Sea Level Pressure  
Sea Level Pressure 29.99 in    
Wind  
Wind Speed 7 mph (South)    
Max Wind Speed 24 mph    
Max Gust Speed 31 mph    
Visibility 10 miles    
Events      
Averages and records for this station are not official NWS values.
T = Trace of Precipitation, MM = Missing Value Source: NWS Daily Summary

Daily Weather History Graph

Daily Weather History Graph

Search for Another Location

Airport or City:

Trip Planner

Search our weather history database for the weather conditions in past years. The results will help you decide how hot, cold, wet, or windy it might be!

Date:

Astronomy

Nov. 07, 2012 Rise Set
Actual Time 7:18 AM CST 5:01 PM CST
Civil Twilight 6:46 AM CST 5:33 PM CST
Nautical Twilight 6:09 AM CST 6:10 PM CST
Astronomical Twilight 5:34 AM CST 6:45 PM CST
Moon No Moon Rise 1:34 PM CST (11/7)
Length of Visible Light 10h 47m
Length of Day
9h 42m
Last Quarter, 43% of the Moon is Illuminated
Nov 7
Last Quarter
Nov 13
New
Nov 20
First Quarter
Nov 28
Full
Dec 6
Last Quarter

Hourly Weather History & Observations

Time (CST) Temp. Windchill Dew Point Humidity Pressure Visibility Wind Dir Wind Speed Gust Speed Precip Events Conditions
12:15 AM 39.2 °F 35.0 °F 39.2 °F 100% 30.03 in 10.0 mi NNW 5.8 mph - N/A   Overcast
12:34 AM 39.2 °F 35.0 °F 37.4 °F 93% 30.04 in 10.0 mi NNW 5.8 mph - N/A   Overcast
12:55 AM 39.2 °F 35.0 °F 37.4 °F 93% 30.04 in 10.0 mi NNW 5.8 mph - N/A   Overcast
1:15 AM 39.2 °F 35.0 °F 37.4 °F 93% 30.05 in 10.0 mi NW 5.8 mph - N/A   Overcast
1:35 AM 39.2 °F 35.0 °F 37.4 °F 93% 30.05 in 10.0 mi NW 5.8 mph - N/A   Overcast
1:55 AM 37.4 °F 32.1 °F 35.6 °F 93% 30.06 in 10.0 mi NW 6.9 mph - N/A   Scattered Clouds
2:15 AM 35.6 °F 30.7 °F 35.6 °F 100% 30.07 in 10.0 mi NW 5.8 mph - N/A   Clear
2:55 AM 35.6 °F 32.8 °F 35.6 °F 100% 30.07 in 10.0 mi NW 3.5 mph - N/A   Overcast
3:14 AM 35.6 °F - 35.6 °F 100% 30.06 in 10.0 mi Calm Calm - N/A   Overcast
3:35 AM 35.6 °F 32.8 °F 35.6 °F 100% 30.07 in 10.0 mi WNW 3.5 mph - N/A   Overcast
3:55 AM 35.6 °F 32.8 °F 35.6 °F 100% 30.07 in 10.0 mi West 3.5 mph - N/A   Overcast
4:35 AM 35.6 °F - 35.6 °F 100% 30.07 in 10.0 mi Calm Calm - N/A   Overcast
4:55 AM 33.8 °F 29.6 °F 33.8 °F 100% 30.07 in 10.0 mi NW 4.6 mph - N/A   Scattered Clouds
5:14 AM 32.0 °F 28.7 °F 32.0 °F 100% 30.07 in 10.0 mi WNW 3.5 mph - N/A   Clear
5:35 AM 33.8 °F - 33.8 °F 100% 30.08 in 10.0 mi Calm Calm - N/A   Clear
5:54 AM 33.8 °F - 33.8 °F 100% 30.08 in 10.0 mi Calm Calm - N/A   Clear
6:15 AM 33.8 °F - 33.8 °F 100% 30.08 in 10.0 mi Calm Calm - N/A   Clear
6:35 AM 32.0 °F - 32.0 °F 100% 30.07 in 10.0 mi Calm Calm - N/A   Clear
6:54 AM 28.4 °F - 28.4 °F 100% 30.08 in 10.0 mi Calm Calm - N/A   Clear
7:15 AM 30.2 °F 26.7 °F 30.2 °F 100% 30.08 in 10.0 mi SW 3.5 mph - N/A   Clear
7:35 AM 28.4 °F 23.3 °F 28.4 °F 100% 30.08 in 10.0 mi SW 4.6 mph - N/A   Clear
7:54 AM 28.4 °F 23.3 °F 28.4 °F 100% 30.08 in 10.0 mi SW 4.6 mph - N/A   Clear
8:15 AM 28.4 °F 24.6 °F 28.4 °F 100% 30.09 in 10.0 mi SW 3.5 mph - N/A   Clear
8:35 AM 30.2 °F - 30.2 °F 100% 30.08 in 10.0 mi Calm Calm - N/A   Clear
8:54 AM 32.0 °F - 32.0 °F 100% 30.08 in 10.0 mi Calm Calm - N/A   Clear
9:15 AM 33.8 °F - 33.8 °F 100% 30.09 in 10.0 mi Calm Calm - N/A   Clear
9:34 AM 35.6 °F - 35.6 °F 100% 30.09 in 10.0 mi Calm Calm - N/A   Clear
9:55 AM 37.4 °F - 35.6 °F 93% 30.09 in 10.0 mi Calm Calm - N/A   Clear
10:15 AM 37.4 °F 34.9 °F 35.6 °F 93% 30.09 in 10.0 mi SSE 3.5 mph - N/A   Clear
10:34 AM 39.2 °F 35.0 °F 37.4 °F 93% 30.08 in 10.0 mi South 5.8 mph - N/A   Clear
10:55 AM 41.0 °F 37.1 °F 39.2 °F 93% 30.08 in 10.0 mi South 5.8 mph - N/A   Clear
11:15 AM 42.8 °F 38.6 °F 39.2 °F 87% 30.07 in 10.0 mi South 6.9 mph - N/A   Clear
11:34 AM 42.8 °F 38.0 °F 39.2 °F 87% 30.06 in 10.0 mi South 8.1 mph - N/A   Clear
11:55 AM 44.6 °F 40.2 °F 39.2 °F 81% 30.04 in 10.0 mi SSW 8.1 mph - N/A   Clear
12:14 PM 44.6 °F 39.7 °F 39.2 °F 81% 30.03 in 10.0 mi South 9.2 mph - N/A   Clear
12:35 PM 44.6 °F 39.7 °F 39.2 °F 81% 30.03 in 10.0 mi South 9.2 mph - N/A   Clear
12:55 PM 44.6 °F 41.4 °F 37.4 °F 76% 30.01 in 10.0 mi South 5.8 mph - N/A   Clear
1:14 PM 46.4 °F 41.9 °F 37.4 °F 71% 30.01 in 10.0 mi South 9.2 mph - N/A   Clear
1:35 PM 46.4 °F 41.5 °F 35.6 °F 66% 29.99 in 10.0 mi South 10.4 mph - N/A   Clear
1:54 PM 46.4 °F 40.7 °F 35.6 °F 66% 29.98 in 10.0 mi South 12.7 mph - N/A   Clear
2:14 PM 46.4 °F 41.5 °F 35.6 °F 66% 29.97 in 10.0 mi South 10.4 mph - N/A   Clear
2:35 PM 46.4 °F 40.7 °F 35.6 °F 66% 29.97 in 10.0 mi South 12.7 mph 17.3 mph N/A   Clear
2:55 PM 46.4 °F 41.5 °F 35.6 °F 66% 29.97 in 10.0 mi South 10.4 mph - N/A   Clear
3:14 PM 46.4 °F 41.1 °F 35.6 °F 66% 29.97 in 10.0 mi South 11.5 mph 16.1 mph N/A   Clear
3:40 PM 46.4 °F 40.4 °F 37.4 °F 71% 29.95 in 10.0 mi South 13.8 mph 17.3 mph N/A   Clear
3:55 PM 44.6 °F 38.8 °F 37.4 °F 76% 29.95 in 10.0 mi South 11.5 mph - N/A   Clear
4:15 PM 44.6 °F 39.2 °F 37.4 °F 76% 29.94 in 10.0 mi SSE 10.4 mph 16.1 mph N/A   Clear
4:35 PM 44.6 °F 39.2 °F 37.4 °F 76% 29.93 in 10.0 mi SSE 10.4 mph - N/A   Clear
4:54 PM 44.6 °F 39.2 °F 39.2 °F 81% 29.92 in 10.0 mi SSE 10.4 mph - N/A   Clear
5:15 PM 44.6 °F 39.2 °F 39.2 °F 81% 29.92 in 10.0 mi SSE 10.4 mph - N/A   Clear
5:35 PM 42.8 °F 36.6 °F 39.2 °F 87% 29.91 in 10.0 mi SSE 11.5 mph - N/A   Clear
5:54 PM 42.8 °F 36.6 °F 39.2 °F 87% 29.90 in 10.0 mi SSE 11.5 mph - N/A   Clear
6:15 PM 42.8 °F 36.2 °F 39.2 °F 87% 29.90 in 10.0 mi SSE 12.7 mph - N/A   Clear
6:34 PM 42.8 °F 35.8 °F 37.4 °F 81% 29.89 in 10.0 mi SSE 13.8 mph 20.7 mph N/A   Clear
6:54 PM 42.8 °F 35.8 °F 37.4 °F 81% 29.89 in 10.0 mi SSE 13.8 mph 19.6 mph N/A   Clear
7:15 PM 42.8 °F 35.8 °F 39.2 °F 87% 29.88 in 10.0 mi SSE 13.8 mph 18.4 mph N/A   Clear
7:34 PM 42.8 °F 35.4 °F 39.2 °F 87% 29.87 in 10.0 mi SSE 15.0 mph 19.6 mph N/A   Clear
7:55 PM 44.6 °F 37.2 °F 37.4 °F 76% 29.86 in 10.0 mi SSE 17.3 mph - N/A   Scattered Clouds
8:15 PM 44.6 °F 36.1 °F 37.4 °F 76% 29.85 in 10.0 mi SSE 21.9 mph 27.6 mph N/A   Scattered Clouds
8:34 PM 44.6 °F 36.6 °F 37.4 °F 76% 29.86 in 10.0 mi South 19.6 mph 26.5 mph N/A   Clear
8:55 PM 44.6 °F 35.9 °F 37.4 °F 76% 29.85 in 10.0 mi South 23.0 mph 27.6 mph N/A   Clear
9:15 PM 44.6 °F 37.2 °F 37.4 °F 76% 29.85 in 10.0 mi South 17.3 mph 28.8 mph N/A   Clear
9:34 PM 44.6 °F 36.4 °F 37.4 °F 76% 29.85 in 10.0 mi South 20.7 mph 26.5 mph N/A   Clear
9:55 PM 44.6 °F 35.7 °F 37.4 °F 76% 29.84 in 10.0 mi SSE 24.2 mph 29.9 mph N/A   Clear
10:15 PM 44.6 °F 36.6 °F 37.4 °F 76% 29.84 in 10.0 mi South 19.6 mph 31.1 mph N/A   Clear
10:34 PM 42.8 °F 34.0 °F 37.4 °F 81% 29.83 in 10.0 mi South 20.7 mph 28.8 mph N/A   Clear
10:55 PM 42.8 °F 34.5 °F 37.4 °F 81% 29.83 in 10.0 mi South 18.4 mph 27.6 mph N/A   Clear
11:14 PM 42.8 °F 34.0 °F 37.4 °F 81% 29.83 in 10.0 mi South 20.7 mph 28.8 mph N/A   Clear
11:35 PM 42.8 °F 34.8 °F 37.4 °F 81% 29.83 in 10.0 mi South 17.3 mph 26.5 mph N/A   Clear
11:55 PM 42.8 °F 34.3 °F 37.4 °F 81% 29.82 in 10.0 mi South 19.6 mph 29.9 mph N/A   Clear